Powrót do katalogu

STARLINK-31165

AktywnyŁącznośćVLEO
NORAD 58748·PAYLOAD·🇺🇸 United States

Wystrzelony Jan 7, 2024 z Cape Canaveral Space Force Station

Loading…

Następne Przeloty (najbliższe 24 godziny)

TLE

ŚwieżeSource: CelesTrak SupGP

Epoka: Sep 14, 2026, 20:53 UTC

1 58748C 24005W   26257.87062500  .00040381  00000+0  14627-2 0  2577
2 58748  43.0016 231.4889 0001620 260.6081 147.7734 15.27556616    13

Śledź STARLINK-31165 w czasie rzeczywistym z AllMySat

Download on the App Store